Regional Weather Roundup
Issued by NWS

Home | Current Version | Previous Version | Text Only | Print | Product List | Glossary On
Versions: 1 2 3 4 5 6 7 8 9 10 11 12 13 14 15 16 17 18 19 20 21 22 23 24 25 26 27 28 29 30 31 32 33 34 35 36 37 38 39 40 41 42 43 44 45 46 47 48 49 50
000
ASCA42 TJSJ 121410
RWRPR
PUERTO RICO/U.S. VIRGIN ISLANDS HOURLY WEATHER ROUNDUP
NATIONAL WEATHER SERVICE SAN JUAN PR
1000 AM AST FRI FEB 12 2016

PRZ001-004-121500-
PUERTO RICO

CITY           SKY/WX    TMP DP  RH WIND       PRES   REMARKS
SAN JUAN LMM   MOSUNNY   81  72  74 VRB6      30.16R
AGUADILLA      PTSUNNY   81  64  57 E14G22    30.17R
CEIBA          SUNNY     82  70  65 NE8       30.18R
$$

PRZ006-007-121500-
U.S. VIRGIN ISLANDS

CITY           SKY/WX    TMP DP  RH WIND       PRES   REMARKS
CHARLOTTE AMA  SUNNY     81  68  65 E10G18    30.15R
CHRISTIANSTED  MOSUNNY   82  68  61 E10       30.15R
$$

HOURLY WEATHER ROUNDUP FOR THE NEWS MEDIA

CITY           SKY/WX    TMP DP  RH WIND       PRES   REMARKS
ORLANDO        SUNNY     57  49  74 SW3       30.29F
NEW YORK       MOSUNNY   20  -1  40 W9        30.29S WCI   9
NEWARK         MOSUNNY   20   0  41 W7        30.28S WCI  11
CHICAGO        CLOUDY    19   9  65 W14       30.13S WCI   6
HARTFORD       SUNNY     12  -2  53 W12       30.22R WCI  -2
BOSTON         MOSUNNY   12  -5  46 W14       30.20S WCI  -3
DALLAS         PTCLDY    46  35  65 NE6       30.24R
PHILADELPHIA   MOSUNNY   20   0  41 NW5       30.30F WCI  13
LOS ANGELES    PTCLDY    57  39  51 E5        30.09R
WASHINGTON DC  CLOUDY    19  12  73 SW12      30.17F WCI   7


USA.gov is the U.S. government's official web portal to all federal, state and local government web resources and services.